"Period start","avg(HW err(1)/warn(2) (#))","avg(Visibility (m))","avg(Weather code (#))","avg(Precip intensity (mm/h))","min(HW err(1)/warn(2) (#))","max(HW err(1)/warn(2) (#))","std(HW err(1)/warn(2) (#))","med(HW err(1)/warn(2) (#))","min(Visibility (m))","max(Visibility (m))","std(Visibility (m))","med(Visibility (m))","min(Weather code (#))","max(Weather code (#))","std(Weather code (#))","med(Weather code (#))","min(Precip intensity (mm/h))","max(Precip intensity (mm/h))","std(Precip intensity (mm/h))","med(Precip intensity (mm/h))"
2016-03-20 00:00:00,2,40535,0,0.00,2,2,0,2,24743,50000,8058,43331,0,0,0,0,0.00,0.00,0.00,0.00
2016-03-20 00:10:00,2,43026,0,0.00,2,2,0,2,33640,50000,5488,42978,0,0,0,0,0.00,0.00,0.00,0.00
2016-03-20 00:20:00,2,36986,0,0.00,2,2,0,2,31065,44057,3422,37096,0,0,0,0,0.00,0.00,0.00,0.00
2016-03-20 00:30:00,2,46550,0,0.00,2,2,0,2,41420,50000,3584,47502,0,0,0,0,0.00,0.00,0.00,0.00
2016-03-20 00:40:00,2,39972,0,0.00,2,2,0,2,31387,49621,5275,39256,0,0,0,0,0.00,0.00,0.00,0.00
2016-03-20 00:50:00,2,46512,0,0.00,2,2,0,2,33312,50000,5591,49838,0,0,0,0,0.00,0.00,0.00,0.00
2016-03-20 01:00:00,2,47466,0,0.00,2,2,0,2,41751,50000,2838,48233,0,0,0,0,0.00,0.00,0.00,0.00
2016-03-20 01:10:00,2,38233,0,0.00,2,2,0,2,21509,50000,8613,37375,0,0,0,0,0.00,0.00,0.00,0.00
2016-03-20 01:20:00,2,37851,0,0.00,2,2,0,2,23012,50000,8540,38477,0,0,0,0,0.00,0.00,0.00,0.00
2016-03-20 01:30:00,2,42144,0,0.00,2,2,0,2,27991,50000,8503,45202,0,0,0,0,0.00,0.00,0.00,0.00
2016-03-20 01:40:00,2,42094,0,0.00,2,2,0,2,26956,50000,7381,42676,0,0,0,0,0.00,0.00,0.00,0.00
2016-03-20 01:50:00,2,42945,0,0.00,2,2,0,2,22644,50000,9611,47548,0,0,0,0,0.00,0.00,0.00,0.00
2016-03-20 02:00:00,2,36418,0,0.00,2,2,0,2,20058,50000,9993,39314,0,0,0,0,0.00,0.00,0.00,0.00
2016-03-20 02:10:00,2,35600,0,0.00,2,2,0,2,21589,49694,9823,35258,0,0,0,0,0.00,0.00,0.00,0.00
2016-03-20 02:20:00,2,38576,0,0.00,2,2,0,2,28120,50000,7936,39440,0,0,0,0,0.00,0.00,0.00,0.00
2016-03-20 02:30:00,2,40487,0,0.00,2,2,0,2,27549,50000,7577,41304,0,0,0,0,0.00,0.00,0.00,0.00
2016-03-20 02:40:00,2,36368,0,0.00,2,2,0,2,24127,50000,7961,37003,0,0,0,0,0.00,0.00,0.00,0.00
2016-03-20 02:50:00,2,43006,0,0.00,2,2,0,2,35438,50000,4618,43195,0,0,0,0,0.00,0.00,0.00,0.00
2016-03-20 03:00:00,2,35712,0,0.00,2,2,0,2,28509,50000,6113,35340,0,0,0,0,0.00,0.00,0.00,0.00
2016-03-20 03:10:00,2,40598,0,0.00,2,2,0,2,20099,50000,10337,43940,0,0,0,0,0.00,0.00,0.00,0.00
2016-03-20 03:20:00,2,30755,0,0.00,2,2,0,2,21096,43992,5962,29913,0,0,0,0,0.00,0.00,0.00,0.00
2016-03-20 03:30:00,2,38011,0,0.00,2,2,0,2,23393,50000,8125,38329,0,0,0,0,0.00,0.00,0.00,0.00
2016-03-20 03:40:00,2,38192,0,0.00,2,2,0,2,19250,50000,9316,39546,0,0,0,0,0.00,0.00,0.00,0.00
2016-03-20 03:50:00,2,41701,0,0.00,2,2,0,2,25065,50000,7561,42090,0,0,0,0,0.00,0.00,0.00,0.00
2016-03-20 04:00:00,2,35008,0,0.00,2,2,0,2,27385,45183,4859,34812,0,0,0,0,0.00,0.00,0.00,0.00
2016-03-20 04:10:00,2,39016,0,0.00,2,2,0,2,24525,50000,8550,39854,0,0,0,0,0.00,0.00,0.00,0.00
2016-03-20 04:20:00,2,38056,0,0.00,2,2,0,2,13214,50000,10523,39134,0,0,0,0,0.00,0.00,0.00,0.00
2016-03-20 04:30:00,2,40924,0,0.00,2,2,0,2,26473,50000,7682,43050,0,0,0,0,0.00,0.00,0.00,0.00
2016-03-20 04:40:00,2,45531,0,0.00,2,2,0,2,35238,50000,5040,47276,0,0,0,0,0.00,0.00,0.00,0.00
2016-03-20 04:50:00,2,46259,0,0.00,2,2,0,2,39131,50000,3623,46156,0,0,0,0,0.00,0.00,0.00,0.00
2016-03-20 05:00:00,2,32466,21,0.03,2,2,0,2,12698,50000,10797,33164,0,71,33,0,0.00,0.20,0.06,0.00
2016-03-20 05:10:00,2,45112,28,0.01,2,2,0,2,35730,50000,5006,46457,0,71,35,0,0.00,0.05,0.02,0.00
2016-03-20 05:20:00,2,43629,0,0.00,2,2,0,2,27208,50000,8395,48770,0,0,0,0,0.00,0.00,0.00,0.00
2016-03-20 05:30:00,2,47689,0,0.00,2,2,0,2,40226,50000,2965,48630,0,0,0,0,0.00,0.00,0.00,0.00
2016-03-20 05:40:00,2,39438,0,0.00,2,2,0,2,32063,47591,6144,38038,0,0,0,0,0.00,0.00,0.00,0.00
2016-03-20 05:50:00,2,47842,0,0.00,2,2,0,2,44596,50000,2073,48166,0,0,0,0,0.00,0.00,0.00,0.00
2016-03-20 06:00:00,2,46699,0,0.00,2,2,0,2,37313,50000,3495,47837,0,0,0,0,0.00,0.00,0.00,0.00
2016-03-20 06:10:00,2,47783,0,0.00,2,2,0,2,41934,50000,2746,49202,0,0,0,0,0.00,0.00,0.00,0.00
2016-03-20 06:20:00,2,47158,0,0.00,2,2,0,2,38402,50000,3505,48367,0,0,0,0,0.00,0.00,0.00,0.00
2016-03-20 06:30:00,2,48811,0,0.00,2,2,0,2,46489,50000,1499,50000,0,0,0,0,0.00,0.00,0.00,0.00
2016-03-20 06:40:00,2,49320,0,0.00,2,2,0,2,46335,50000,1364,50000,0,0,0,0,0.00,0.00,0.00,0.00
2016-03-20 06:50:00,2,44910,0,0.00,2,2,0,2,37575,50000,4259,44574,0,0,0,0,0.00,0.00,0.00,0.00
2016-03-20 07:00:00,2,43496,0,0.00,2,2,0,2,34372,50000,4308,42270,0,0,0,0,0.00,0.00,0.00,0.00
2016-03-20 07:10:00,2,46565,0,0.00,2,2,0,2,36493,50000,4032,47144,0,0,0,0,0.00,0.00,0.00,0.00
2016-03-20 07:20:00,2,48129,0,0.00,2,2,0,2,42430,50000,2229,48464,0,0,0,0,0.00,0.00,0.00,0.00
2016-03-20 07:30:00,2,47785,0,0.00,2,2,0,2,38608,50000,3454,49658,0,0,0,0,0.00,0.00,0.00,0.00
2016-03-20 07:40:00,2,49410,0,0.00,2,2,0,2,47047,50000,1179,50000,0,0,0,0,0.00,0.00,0.00,0.00
2016-03-20 07:50:00,2,49281,0,0.00,2,2,0,2,45099,50000,1472,50000,0,0,0,0,0.00,0.00,0.00,0.00
2016-03-20 08:00:00,2,49111,0,0.00,2,2,0,2,41110,50000,2667,50000,0,0,0,0,0.00,0.00,0.00,0.00
2016-03-20 08:10:00,2,46128,0,0.00,2,2,0,2,16585,50000,9902,50000,0,0,0,0,0.00,0.00,0.00,0.00
2016-03-20 08:20:00,2,14761,71,0.12,2,2,0,2,9633,19210,3104,15374,71,71,0,71,0.05,0.30,0.08,0.10
2016-03-20 08:30:00,2,10113,71,0.23,2,2,0,2,7464,13613,2177,9344,71,71,0,71,0.05,0.50,0.12,0.20
2016-03-20 08:40:00,2,16301,71,0.12,2,2,0,2,8213,23066,4229,17003,71,71,0,71,0.00,0.40,0.12,0.08
2016-03-20 08:50:00,2,13366,71,0.19,2,2,0,2,7251,21672,4834,12536,71,71,0,71,0.00,0.75,0.23,0.10
2016-03-20 09:00:00,2,6642,71,0.40,2,2,0,2,3213,10538,2283,6156,71,71,0,71,0.10,1.20,0.30,0.30
2016-03-20 09:10:00,2,6447,71,0.70,2,2,0,2,3417,8533,1830,7390,71,71,0,71,0.30,1.35,0.29,0.65
2016-03-20 09:20:00,2,5002,71,0.62,2,2,0,2,1408,11264,2722,5196,71,71,0,71,0.05,1.90,0.49,0.48
2016-03-20 09:30:00,2,7602,71,0.34,2,2,0,2,4477,11500,1946,7543,71,71,0,71,0.05,0.65,0.21,0.38
2016-03-20 09:40:00,2,6769,71,0.45,2,2,0,2,4710,9980,1581,6948,71,71,0,71,0.15,0.80,0.23,0.43
2016-03-20 09:50:00,2,5402,71,0.52,2,2,0,2,3274,8248,1575,4612,71,71,0,71,0.15,1.30,0.37,0.42
2016-03-20 10:00:00,2,9371,71,0.27,2,2,0,2,5946,12092,2027,9736,71,71,0,71,0.05,0.50,0.14,0.30
2016-03-20 10:10:00,2,7365,71,0.52,2,2,0,2,5625,8202,782,7430,71,71,0,71,0.20,0.70,0.15,0.55
2016-03-20 10:20:00,2,11688,72,0.18,2,2,0,2,5863,19256,4127,11310,71,77,2,71,0.05,0.60,0.16,0.10
2016-03-20 10:30:00,2,9884,73,0.15,2,2,0,2,4813,13567,2438,9643,71,77,3,71,0.00,0.65,0.18,0.10
2016-03-20 10:40:00,2,8243,71,0.29,2,2,0,2,4247,15608,3436,7021,71,71,0,71,0.00,1.00,0.35,0.12
2016-03-20 10:50:00,2,8483,71,0.15,2,2,0,2,4367,15881,2849,8014,71,71,0,71,0.00,0.40,0.13,0.10
2016-03-20 11:00:00,2,32751,73,0.02,2,2,0,2,17014,50000,12704,30463,71,77,3,71,0.00,0.10,0.03,0.00
2016-03-20 11:10:00,2,46613,45,0.01,2,2,0,2,41705,50000,3374,46953,0,77,37,71,0.00,0.05,0.02,0.00
2016-03-20 11:20:00,2,50000,0,0.00,2,2,0,2,50000,50000,0,50000,0,0,0,0,0.00,0.00,0.00,0.00
2016-03-20 11:30:00,2,50000,0,0.00,2,2,0,2,50000,50000,0,50000,0,0,0,0,0.00,0.00,0.00,0.00
2016-03-20 11:40:00,2,30384,36,0.07,2,2,0,2,4533,50000,16881,26023,0,71,36,36,0.00,0.50,0.15,0.00
2016-03-20 11:50:00,2,31462,73,0.05,2,2,0,2,7134,48874,15585,38140,71,77,3,71,0.00,0.25,0.09,0.00
2016-03-20 12:00:00,2,21148,52,0.18,2,2,0,2,3222,35378,8916,20918,0,77,34,71,0.00,1.10,0.32,0.05
2016-03-20 12:10:00,2,8427,71,0.21,2,2,0,2,4988,11484,2422,8867,71,71,0,71,0.05,0.55,0.16,0.12
2016-03-20 12:20:00,2,22440,62,0.10,2,2,0,2,10523,32175,8118,23356,41,71,14,71,0.00,0.30,0.09,0.08
2016-03-20 12:30:00,2,9804,65,0.50,2,2,0,2,3332,21617,6180,7168,41,71,12,71,0.05,1.70,0.46,0.48
2016-03-20 12:40:00,2,3689,71,0.86,2,2,0,2,2007,6437,1378,3797,71,71,0,71,0.20,1.35,0.37,0.97
2016-03-20 12:50:00,2,5099,71,0.58,2,2,0,2,2721,8028,1323,5104,71,71,0,71,0.15,1.15,0.30,0.55
2016-03-20 13:00:00,2,5403,71,0.70,2,2,0,2,3578,7198,1212,4973,71,71,0,71,0.35,1.35,0.37,0.57
2016-03-20 13:10:00,2,6424,71,0.73,2,2,0,2,4526,10695,1864,5890,71,71,0,71,0.15,2.25,0.59,0.45
2016-03-20 13:20:00,2,4464,71,0.74,2,2,0,2,1681,7711,2024,4274,71,71,0,71,0.30,1.15,0.24,0.78
2016-03-20 13:30:00,2,6193,71,0.55,2,2,0,2,4448,9457,1471,5672,71,71,0,71,0.05,0.95,0.27,0.50
2016-03-20 13:40:00,2,8287,71,0.38,2,2,0,2,4180,18340,3761,7610,71,71,0,71,0.00,0.90,0.25,0.25
2016-03-20 13:50:00,2,11229,71,0.35,2,2,0,2,7091,15926,3116,12110,71,71,0,71,0.10,0.75,0.20,0.30
2016-03-20 14:00:00,2,38377,71,0.05,2,2,0,2,16866,50000,11975,41428,71,71,0,71,0.00,0.25,0.08,0.00
2016-03-20 14:10:00,2,49820,0,0.00,2,2,0,2,48200,50000,540,50000,0,0,0,0,0.00,0.00,0.00,0.00
2016-03-20 14:20:00,2,47455,62,0.03,2,2,0,2,40892,50000,3117,48625,54,77,10,54,0.00,0.15,0.05,0.00
2016-03-20 14:30:00,2,46852,64,0.02,2,2,0,2,39626,50000,4307,49594,54,77,11,62,0.00,0.05,0.02,0.00
2016-03-20 14:40:00,2,42916,60,0.01,2,2,0,2,16892,50000,10982,49601,54,77,10,54,0.00,0.05,0.02,0.00
2016-03-20 14:50:00,2,35033,72,0.07,2,2,0,2,19669,50000,9434,33643,71,74,1,71,0.00,0.20,0.06,0.05
2016-03-20 15:00:00,2,35835,73,0.04,2,2,0,2,17442,50000,10450,36084,71,77,3,71,0.00,0.20,0.07,0.00
2016-03-20 15:10:00,2,38963,74,0.06,2,2,0,2,23761,50000,8098,37832,71,77,3,74,0.00,0.15,0.06,0.05
2016-03-20 15:20:00,2,48114,76,0.02,2,2,0,2,43362,50000,2850,50000,71,77,2,77,0.00,0.05,0.02,0.00
2016-03-20 15:30:00,2,36710,76,0.04,2,2,0,2,10897,50000,15326,43397,71,77,2,77,0.00,0.20,0.06,0.00
2016-03-20 15:40:00,2,22613,71,0.10,2,2,0,2,16729,35025,5548,20809,71,71,0,71,0.00,0.20,0.06,0.10
2016-03-20 15:50:00,2,20244,71,0.14,2,2,0,2,11169,28547,5374,20306,71,71,0,71,0.00,0.35,0.11,0.10
2016-03-20 16:00:00,2,12542,71,0.35,2,2,0,2,7142,32151,7481,9828,71,71,0,71,0.05,0.65,0.21,0.30
2016-03-20 16:10:00,2,18145,64,0.11,2,2,0,2,6956,28675,6870,18380,0,71,21,71,0.00,0.55,0.16,0.05
2016-03-20 16:20:00,2,14653,65,0.17,2,2,0,2,6004,23416,5190,12219,41,71,12,71,0.00,0.70,0.21,0.10
2016-03-20 16:30:00,2,4972,71,1.10,2,2,0,2,1638,11599,3747,3214,71,71,0,71,0.10,2.25,0.72,1.05
2016-03-20 16:40:00,2,1699,71,2.69,2,2,0,2,1303,2219,248,1714,71,71,0,71,1.65,3.95,0.66,2.62
2016-03-20 16:50:00,2,1819,71,3.39,2,2,0,2,1271,2320,271,1862,71,71,0,71,1.80,8.10,1.82,2.77
2016-03-20 17:00:00,2,1483,71,2.67,2,2,0,2,984,1935,329,1554,71,71,0,71,1.55,4.90,1.13,2.22
2016-03-20 17:10:00,2,1521,71,2.31,2,2,0,2,1108,2253,298,1432,71,71,0,71,1.25,3.20,0.69,2.25
2016-03-20 17:20:00,2,1868,71,2.35,2,2,0,2,1388,2315,300,1809,71,71,0,71,1.40,3.65,0.69,2.17
2016-03-20 17:30:00,2,1738,71,2.67,2,2,0,2,1275,2308,334,1676,71,71,0,71,1.10,5.05,1.12,2.33
2016-03-20 17:40:00,2,1732,71,2.41,2,2,0,2,1072,2377,399,1709,71,71,0,71,1.15,4.75,1.06,2.30
2016-03-20 17:50:00,2,2137,71,1.23,2,2,0,2,1354,3127,648,2006,71,71,0,71,0.65,2.25,0.52,1.07
2016-03-20 18:00:00,2,2468,71,1.31,2,2,0,2,1914,3059,410,2580,71,71,0,71,0.75,2.05,0.37,1.38
2016-03-20 18:10:00,2,3320,71,1.03,2,2,0,2,1262,6209,1577,2899,71,71,0,71,0.20,1.55,0.45,1.25
2016-03-20 18:20:00,2,3481,71,0.89,2,2,0,2,2080,4459,780,3720,71,71,0,71,0.35,1.80,0.39,0.83
2016-03-20 18:30:00,2,4148,71,0.69,2,2,0,2,3017,5352,762,4172,71,71,0,71,0.35,1.30,0.28,0.73
2016-03-20 18:40:00,2,4335,71,0.72,2,2,0,2,1768,7862,1755,3963,71,71,0,71,0.15,1.80,0.42,0.65
2016-03-20 18:50:00,2,6500,71,0.49,2,2,0,2,4588,9600,1424,6150,71,71,0,71,0.10,0.75,0.20,0.50
2016-03-20 19:00:00,2,5212,72,0.73,2,2,0,2,3452,7221,1220,5207,71,74,1,71,0.30,1.40,0.39,0.70
2016-03-20 19:10:00,2,9316,71,0.21,2,2,0,2,5810,15235,3180,8383,71,71,0,71,0.05,0.50,0.13,0.17
2016-03-20 19:20:00,2,10123,71,0.17,2,2,0,2,4631,14985,3343,11341,71,71,0,71,0.05,0.45,0.14,0.10
2016-03-20 19:30:00,2,17196,71,0.07,2,2,0,2,9213,27704,5271,17384,71,71,0,71,0.00,0.15,0.06,0.05
2016-03-20 19:40:00,2,22738,72,0.07,2,2,0,2,12372,29812,5389,23470,71,77,2,71,0.00,0.25,0.07,0.05
2016-03-20 19:50:00,2,27443,71,0.06,2,2,0,2,7345,35318,7688,29935,71,71,0,71,0.00,0.30,0.09,0.03
2016-03-20 20:00:00,2,25376,75,0.09,2,2,0,2,16126,33317,6120,27810,71,77,3,77,0.05,0.20,0.04,0.10
2016-03-20 20:10:00,2,10074,73,0.15,2,2,0,2,7237,16958,2845,8882,71,77,3,71,0.10,0.25,0.04,0.15
2016-03-20 20:20:00,2,7606,77,0.33,2,2,0,2,6552,8532,631,7662,77,77,0,77,0.15,0.55,0.11,0.33
2016-03-20 20:30:00,2,6260,72,0.38,2,2,0,2,5116,7838,790,6010,71,77,2,71,0.25,0.60,0.11,0.38
2016-03-20 20:40:00,2,4826,71,0.51,2,2,0,2,4026,5490,419,4724,71,71,0,71,0.30,0.80,0.16,0.47
2016-03-20 20:50:00,2,4442,73,0.44,2,2,0,2,3818,5521,468,4546,71,77,3,71,0.25,1.00,0.22,0.38
2016-03-20 21:00:00,2,7198,71,0.21,2,2,0,2,4774,9684,1492,6816,71,71,0,71,0.10,0.40,0.08,0.20
2016-03-20 21:10:00,2,11838,71,0.32,2,2,0,2,8578,16557,2495,11206,71,71,0,71,0.10,1.05,0.26,0.25
2016-03-20 21:20:00,2,29848,76,0.03,2,2,0,2,23227,34556,3418,29600,71,77,2,77,0.00,0.10,0.03,0.00
2016-03-20 21:30:00,2,34427,73,0.02,2,2,0,2,28891,42121,4420,33766,71,77,3,71,0.00,0.05,0.02,0.00
2016-03-20 21:40:00,2,39449,53,0.01,2,2,0,2,31194,45221,4231,39612,0,77,35,74,0.00,0.05,0.02,0.00
2016-03-20 21:50:00,2,41723,30,0.01,2,2,0,2,31676,50000,6904,42166,0,77,36,0,0.00,0.05,0.02,0.00
2016-03-20 22:00:00,2,34545,73,0.03,2,2,0,2,25541,43322,5392,35082,71,77,3,71,0.00,0.10,0.03,0.00
2016-03-20 22:10:00,2,22460,77,0.12,2,2,0,2,13055,37341,8527,18576,77,77,0,77,0.05,0.25,0.07,0.12
2016-03-20 22:20:00,2,16473,77,0.10,2,2,0,2,10458,23779,4409,16266,77,77,0,77,0.00,0.25,0.07,0.08
2016-03-20 22:30:00,2,31153,77,0.07,2,2,0,2,18539,45546,9843,28971,77,77,0,77,0.00,0.25,0.07,0.08
2016-03-20 22:40:00,2,45464,37,0.01,2,2,0,2,41704,48826,2450,45674,0,77,37,36,0.00,0.05,0.02,0.00
2016-03-20 22:50:00,2,42492,0,0.00,2,2,0,2,34840,47519,3739,42764,0,0,0,0,0.00,0.00,0.00,0.00
2016-03-20 23:00:00,2,20523,30,0.02,2,2,0,2,14063,28297,4713,21288,0,77,36,0,0.00,0.05,0.02,0.00
2016-03-20 23:10:00,2,19531,77,0.02,2,2,0,2,13548,30971,5828,17568,77,77,0,77,0.00,0.05,0.02,0.00
2016-03-20 23:20:00,2,17388,75,0.08,2,2,0,2,7669,34584,8356,13305,71,77,3,77,0.00,0.20,0.07,0.08
2016-03-20 23:30:00,2,19922,76,0.07,2,2,0,2,9902,30984,6192,20460,71,77,2,77,0.00,0.30,0.08,0.05
2016-03-20 23:40:00,2,11820,69,0.13,2,2,0,2,6508,20131,4238,11085,41,77,14,77,0.00,0.45,0.12,0.10
2016-03-20 23:50:00,2,9570,73,0.06,2,2,0,2,6955,12921,1638,9468,71,77,3,71,0.00,0.15,0.05,0.05
